Wind_Speed
28 28 28 28 29 31 33 36 38 40 43 46 50 54 58 62 65 68 69 69 69 69 68 67 64 62 61 60 59 59 59 59 59 59 60 60 61 62 63 63 62 56 48 40
28 28 28 27 29 31 33 36 38 40 43 47 50 54 58 62 66 67 67 68 68 68 67 65 62 60 59 59 59 58 58 58 58 59 60 61 62 64 65 64 62 55 46 37
30 30 29 29 31 33 34 37 39 41 44 48 51 55 59 63 65 66 66 66 67 66 66 63 61 59 58 58 58 57 57 57 58 60 61 61 63 64 66 65 62 55 46 36
35 34 33 34 35 36 36 38 40 42 45 48 52 56 59 63 64 65 65 66 66 65 64 62 60 58 58 58 57 56 56 57 58 59 60 61 63 64 66 66 62 56 47 37
38 38 36 37 38 39 40 39 42 44 46 49 53 56 59 62 63 64 64 65 64 64 62 60 58 57 56 56 56 55 55 56 57 59 60 61 62 64 65 65 63 58 50 41
38 40 41 42 41 41 43 42 45 46 47 50 52 55 58 61 63 63 64 64 64 63 61 59 57 55 55 55 54 54 55 56 57 58 59 60 62 64 65 65 64 60 54 45
39 41 42 45 44 44 43 45 47 47 48 50 52 55 58 61 62 62 63 63 63 62 60 58 56 54 54 53 53 53 54 56 57 57 58 60 62 63 65 65 64 61 57 51
42 44 45 47 46 45 45 46 46 47 48 50 52 55 58 60 61 62 62 62 62 61 59 56 55 53 53 52 52 52 53 55 56 57 57 58 60 61 63 63 63 61 58 54
40 42 44 47 47 46 46 46 47 47 48 50 52 55 58 60 61 61 61 61 61 60 58 56 54 52 51 51 51 51 52 53 54 56 56 57 58 59 60 61 61 61 59 55
40 43 45 48 48 48 47 47 47 48 49 50 52 55 57 59 60 60 60 60 60 59 57 55 53 51 50 50 50 50 51 51 52 54 55 55 56 57 58 59 59 60 59 57
39 43 45 48 49 49 49 48 48 48 49 51 52 54 57 59 59 59 59 59 59 58 56 54 52 50 49 48 49 49 49 50 51 52 53 54 56 56 57 58 59 59 59 57
39 43 46 48 50 50 50 49 49 49 50 51 53 54 57 58 59 59 58 58 58 57 55 53 51 50 48 48 48 48 48 49 49 50 52 53 54 55 57 57 57 58 58 58
39 42 46 48 51 52 51 50 49 49 50 51 53 55 57 58 58 58 58 57 57 56 55 53 51 49 48 47 47 47 48 48 48 49 50 51 52 53 53 55 56 56 56 56
39 42 45 48 51 52 52 51 50 50 50 51 53 55 56 58 58 58 57 57 56 55 54 52 50 48 47 46 46 46 47 48 48 48 49 50 51 52 52 52 52 53 54 54
39 42 45 48 50 52 53 52 51 50 51 52 53 54 56 57 58 57 57 56 55 55 53 52 50 48 47 46 45 45 46 46 47 47 48 49 50 50 50 51 51 51 51 52
39 42 44 47 50 52 54 53 52 51 51 52 53 54 56 57 57 57 56 55 55 54 53 51 49 47 46 45 45 45 45 46 46 46 47 48 48 48 49 49 50 50 50 50
39 42 44 47 49 52 54 54 53 51 51 52 53 54 55 57 57 57 56 55 54 53 52 51 48 47 45 45 44 44 44 45 45 45 46 47 47 47 48 48 48 48 49 49
40 42 44 46 49 51 53 54 53 52 52 52 53 54 55 56 56 56 56 55 53 52 51 50 48 46 45 44 44 43 43 44 44 44 45 46 46 46 47 47 47 47 47 47
40 42 44 46 48 50 53 54 54 53 52 52 53 54 55 56 56 56 55 54 53 52 51 49 48 46 44 44 44 43 43 43 43 44 44 45 45 45 45 45 45 45 45 46
41 43 44 45 48 50 52 54 54 53 52 52 53 53 54 55 55 55 55 53 52 51 50 49 48 46 44 43 43 43 42 42 42 42 43 43 44 44 44 44 44 44 44 44
42 43 44 45 47 49 51 53 55 54 53 52 53 53 54 55 55 55 54 53 52 50 49 49 47 46 44 43 42 42 42 42 42 41 41 42 43 43 43 43 43 43 43 43
43 44 44 46 47 49 51 52 54 54 53 52 52 53 53 54 54 54 53 52 51 49 48 48 47 46 44 43 42 41 41 41 41 41 41 41 42 42 42 42 42 42 42 42
44 44 45 46 47 49 50 52 54 54 53 52 51 52 53 53 53 53 52 52 50 49 48 47 47 46 44 43 42 41 41 41 41 41 40 40 41 41 41 41 41 41 41 41
45 45 45 46 47 48 50 51 53 54 53 51 51 52 52 52 52 53 52 51 50 49 47 46 46 45 44 43 41 40 40 40 40 40 40 40 40 40 40 40 40 40 40 40
46 46 46 47 47 48 50 51 53 54 53 51 50 51 52 52 52 52 52 51 49 48 47 46 45 45 44 43 41 40 39 39 39 39 39 39 39 39 39 38 38 38 38 38
47 47 47 47 47 48 50 51 52 53 53 51 50 50 51 51 51 51 51 50 49 48 46 45 44 44 44 43 41 39 39 38 38 38 38 38 38 38 38 37 36 36 37 37
49 48 48 47 47 48 50 51 52 53 52 50 49 50 50 50 50 50 50 50 48 47 46 44 44 43 43 42 41 39 38 37 37 37 37 37 37 37 37 36 36 35 35 36
Wind_Direction
0 354 349 347 344 341 339 338 338 339 339 340 342 343 343 344 344 345 344 343 342 342 342 342 343 343 344 345 347 348 350 350 350 350 351 351 351 350 349 348 346 344 343 342
3 357 352 348 345 344 342 340 341 341 341 342 343 344 344 345 346 345 345 343 343 343 343 344 344 345 346 347 349 351 352 352 353 353 354 354 354 355 355 354 353 352 353 355
7 2 356 353 351 348 345 343 343 343 343 344 345 345 346 346 346 346 345 344 344 344 345 345 346 347 348 350 351 353 354 354 355 356 357 357 358 359 360 360 360 0 2 6
8 5 1 356 353 350 349 346 346 345 345 346 346 346 347 347 346 346 346 345 345 346 346 347 348 349 350 352 354 355 356 356 357 359 360 1 1 3 4 5 6 8 9 13
6 5 2 357 354 351 350 350 348 347 347 347 347 347 347 347 347 347 347 347 347 347 348 348 349 351 352 354 356 357 357 359 0 1 2 3 5 6 8 9 11 13 14 16
5 3 1 358 356 352 350 351 349 348 348 347 347 347 347 348 348 348 348 348 348 349 349 350 351 352 354 356 358 358 360 1 3 4 5 6 8 9 11 12 14 16 18 19
3 2 0 358 356 352 351 350 350 349 348 347 348 348 348 348 349 349 349 350 350 350 351 351 352 354 356 357 359 360 2 3 5 6 7 8 10 12 13 15 16 18 19 21
0 360 358 356 354 352 350 350 349 349 348 348 348 348 349 349 350 350 350 351 351 352 352 353 354 355 357 359 0 2 3 5 6 8 9 10 12 13 15 17 18 19 21 22
357 356 354 354 353 351 350 349 349 349 349 348 348 349 349 350 350 351 351 352 352 353 353 354 355 356 358 360 1 3 5 6 7 9 10 11 13 14 16 18 19 21 22 24
353 354 353 353 353 352 351 349 349 350 349 349 349 349 350 351 351 352 352 352 353 353 354 355 356 357 359 0 2 4 6 7 8 9 10 12 13 15 16 18 20 22 23 24
349 350 351 351 352 351 350 349 349 350 350 349 349 350 350 351 352 352 353 353 354 354 355 356 356 358 359 1 2 4 6 7 9 10 11 11 13 14 16 18 20 22 23 24
345 347 349 350 350 351 350 349 349 349 350 350 350 350 351 351 352 353 353 354 354 355 355 356 357 358 359 1 2 4 6 8 9 10 11 12 13 14 15 18 19 21 22 24
341 344 346 348 349 349 349 349 348 349 350 350 350 350 351 351 352 353 353 354 355 355 356 356 357 358 359 0 2 4 6 7 8 9 10 12 13 14 15 16 18 20 21 23
337 340 343 345 347 348 348 348 348 348 349 350 350 350 351 351 352 353 354 354 355 355 356 356 357 357 358 360 1 3 5 7 8 8 10 11 12 13 15 16 17 19 20 21
332 336 339 342 344 346 347 347 347 347 348 349 349 350 350 351 352 353 354 354 355 355 356 356 357 357 357 359 0 2 4 5 7 8 9 10 11 12 13 14 16 18 19 20
327 332 335 338 341 344 346 346 346 346 347 348 349 349 350 351 352 353 353 354 354 355 355 356 356 357 357 357 359 1 2 3 5 7 8 10 10 11 12 13 14 15 17 19
323 327 331 335 338 341 344 345 345 345 346 347 348 348 349 350 351 352 353 353 354 355 355 355 355 356 357 357 357 359 0 2 3 5 7 8 9 10 11 11 12 14 15 16
318 323 327 331 335 338 341 343 343 343 344 345 347 347 348 349 350 351 352 353 353 354 354 354 355 355 356 356 357 357 358 359 1 3 4 6 7 8 9 10 11 12 13 14
313 318 323 327 331 335 338 341 342 342 342 344 345 346 347 348 349 350 351 352 352 353 354 353 354 354 355 355 356 356 357 358 359 1 2 4 4 5 6 7 9 10 11 12
309 314 319 323 328 332 335 338 340 340 341 342 343 344 346 347 348 349 350 351 351 352 353 353 353 353 354 354 355 355 356 356 357 359 0 2 3 4 5 6 7 8 8 9
305 310 315 319 324 328 332 335 338 339 339 340 342 343 344 345 346 348 349 350 351 351 351 352 352 352 353 353 353 354 354 355 355 356 358 360 1 2 3 4 5 6 7 7
301 306 311 316 321 325 329 332 335 336 337 338 339 341 342 343 345 346 348 349 349 350 350 351 351 351 351 352 352 352 353 353 354 355 356 357 359 360 1 2 3 4 5 6
297 302 307 312 317 322 326 329 332 334 334 335 337 339 341 342 343 345 346 348 348 349 349 350 350 350 350 350 351 351 351 352 353 353 354 355 356 358 359 0 1 2 4 4
293 298 303 309 313 318 322 326 329 331 332 332 334 336 338 340 341 343 345 346 347 348 348 348 349 349 349 349 349 350 350 351 352 352 353 354 355 356 357 358 360 1 2 3
290 295 300 305 310 314 319 322 325 328 329 330 331 334 336 337 339 341 343 345 346 346 347 347 348 348 348 348 348 348 349 349 350 351 352 352 353 354 355 357 358 359 1 2
287 292 296 301 306 310 315 319 322 325 327 328 329 331 333 335 337 339 341 343 344 345 346 346 347 347 347 347 346 347 348 348 349 350 351 352 353 354 355 356 357 358 359 1
283 288 293 298 302 307 311 315 319 322 324 325 326 329 331 333 335 337 340 342 343 344 345 345 346 346 346 346 345 345 346 347 348 349 350 351 352 354 355 355 356 357 359 360
Height
5853 5847 5842 5836 5831 5825 5818 5811 5804 5796 5787 5777 5765 5754 5742 5729 5715 5700 5685 5670 5654 5639 5624 5608 5592 5578 5564 5550 5536 5522 5508 5493 5479 5465 5450 5435 5419 5403 5385 5366 5347 5329 5313 5299
5853 5846 5840 5834 5829 5822 5815 5807 5799 5791 5781 5771 5760 5749 5736 5723 5709 5695 5680 5665 5650 5635 5619 5604 5589 5575 5561 5547 5533 5518 5504 5491 5476 5462 5447 5431 5415 5398 5380 5361 5342 5323 5307 5294
5851 5845 5839 5832 5826 5819 5811 5803 5794 5785 5777 5765 5755 5743 5731 5718 5704 5690 5676 5661 5646 5631 5615 5600 5586 5572 5558 5544 5530 5516 5502 5489 5475 5460 5445 5429 5413 5396 5378 5359 5340 5322 5306 5293
5848 5843 5835 5831 5821 5814 5807 5799 5790 5780 5771 5760 5750 5738 5726 5713 5700 5686 5672 5657 5642 5626 5611 5596 5582 5568 5554 5541 5527 5514 5501 5488 5474 5459 5444 5429 5413 5396 5378 5359 5341 5324 5309 5296
5845 5838 5833 5826 5818 5809 5802 5795 5785 5776 5766 5755 5744 5733 5722 5709 5696 5682 5668 5653 5638 5623 5608 5593 5579 5566 5553 5539 5526 5514 5501 5488 5474 5459 5445 5430 5414 5398 5380 5363 5345 5328 5313 5301
5843 5835 5829 5824 5814 5805 5798 5790 5781 5771 5761 5751 5740 5730 5719 5705 5691 5678 5664 5649 5634 5620 5605 5590 5577 5564 5551 5539 5526 5514 5501 5488 5474 5460 5445 5431 5416 5399 5383 5366 5350 5334 5320 5308
5840 5833 5826 5819 5809 5801 5794 5787 5776 5766 5756 5746 5736 5726 5714 5700 5687 5674 5660 5646 5632 5617 5603 5589 5575 5563 5550 5538 5526 5513 5500 5487 5474 5461 5447 5433 5418 5403 5387 5371 5356 5341 5328 5316
5836 5828 5824 5815 5806 5799 5791 5781 5771 5761 5752 5742 5731 5720 5709 5696 5683 5670 5657 5643 5629 5615 5601 5587 5574 5562 5550 5538 5526 5513 5501 5488 5476 5463 5450 5437 5423 5408 5394 5380 5366 5352 5338 5326
5835 5830 5821 5812 5803 5795 5786 5777 5767 5757 5748 5738 5727 5716 5705 5693 5680 5667 5653 5640 5626 5613 5599 5586 5574 5561 5550 5538 5526 5514 5502 5490 5478 5466 5454 5441 5429 5415 5402 5388 5375 5361 5348 5335
5832 5826 5818 5809 5800 5791 5782 5773 5763 5754 5744 5734 5724 5713 5701 5689 5676 5664 5650 5637 5624 5611 5597 5585 5573 5561 5550 5538 5527 5516 5504 5493 5481 5470 5458 5446 5434 5421 5409 5396 5383 5370 5357 5345
5828 5822 5814 5805 5796 5787 5778 5769 5759 5750 5740 5730 5720 5709 5697 5685 5673 5660 5648 5635 5622 5609 5596 5584 5572 5561 5550 5539 5528 5517 5506 5495 5484 5473 5461 5450 5438 5426 5414 5402 5389 5377 5366 5354
5824 5818 5810 5802 5793 5784 5775 5765 5755 5746 5736 5726 5716 5705 5694 5682 5670 5658 5645 5633 5620 5608 5595 5583 5572 5561 5550 5540 5530 5519 5509 5498 5487 5477 5465 5454 5442 5429 5418 5407 5395 5384 5372 5361
5820 5813 5806 5798 5789 5780 5771 5761 5751 5742 5732 5722 5712 5701 5690 5679 5667 5655 5643 5631 5619 5606 5594 5583 5572 5561 5551 5541 5531 5521 5510 5500 5489 5479 5469 5458 5447 5436 5424 5413 5401 5391 5380 5370
5814 5808 5801 5793 5785 5776 5767 5757 5747 5738 5728 5718 5708 5698 5687 5675 5664 5652 5641 5629 5617 5605 5593 5582 5571 5561 5551 5541 5531 5521 5511 5501 5491 5481 5471 5461 5450 5440 5430 5420 5409 5398 5388 5377
5810 5803 5797 5789 5781 5772 5762 5753 5743 5734 5724 5714 5704 5694 5683 5672 5661 5650 5638 5627 5615 5604 5592 5581 5571 5561 5551 5541 5532 5522 5513 5503 5494 5484 5474 5464 5454 5444 5434 5424 5414 5404 5394 5384
5804 5798 5791 5784 5776 5767 5758 5749 5739 5729 5720 5710 5700 5690 5680 5669 5658 5647 5636 5624 5613 5602 5591 5580 5570 5560 5550 5541 5532 5523 5514 5505 5496 5486 5476 5467 5457 5448 5438 5429 5419 5409 5400 5391
5798 5792 5785 5779 5771 5762 5754 5744 5735 5725 5715 5706 5696 5686 5676 5666 5655 5644 5633 5622 5611 5601 5590 5580 5570 5560 5551 5542 5533 5524 5515 5506 5497 5488 5478 5469 5460 5451 5442 5432 5423 5414 5404 5395
5791 5786 5780 5773 5765 5757 5749 5739 5730 5720 5711 5702 5692 5682 5672 5662 5652 5641 5631 5620 5610 5599 5589 5579 5569 5559 5550 5542 5533 5524 5515 5507 5498 5489 5480 5471 5462 5453 5444 5435 5427 5418 5408 5399
5783 5778 5773 5766 5759 5751 5743 5734 5725 5716 5706 5697 5688 5678 5669 5659 5649 5639 5628 5618 5608 5598 5588 5578 5568 5559 5550 5541 5532 5524 5515 5507 5499 5490 5481 5473 5464 5455 5447 5438 5429 5421 5412 5403
5775 5771 5765 5759 5752 5745 5737 5728 5720 5710 5701 5692 5683 5674 5665 5655 5645 5635 5625 5616 5606 5596 5586 5576 5567 5558 5549 5540 5532 5524 5516 5507 5499 5491 5483 5474 5466 5457 5449 5440 5432 5423 5415 5406
5766 5762 5757 5751 5745 5738 5730 5722 5714 5705 5696 5687 5679 5670 5661 5651 5642 5632 5622 5613 5603 5593 5584 5575 5565 5556 5548 5539 5531 5523 5515 5507 5499 5491 5483 5475 5467 5459 5450 5442 5433 5425 5417 5409
5757 5753 5748 5743 5737 5730 5723 5716 5708 5699 5691 5682 5674 5665 5656 5647 5638 5629 5619 5610 5600 5591 5582 5573 5564 5555 5546 5538 5530 5523 5515 5507 5499 5491 5483 5476 5468 5460 5451 5443 5435 5427 5419 5411
5747 5744 5739 5735 5729 5723 5716 5709 5701 5693 5685 5677 5668 5660 5652 5643 5634 5625 5616 5607 5597 5588 5579 5571 5562 5553 5545 5537 5529 5522 5514 5506 5499 5491 5483 5475 5468 5460 5452 5444 5436 5428 5420 5412
5736 5733 5730 5725 5720 5714 5708 5701 5694 5687 5679 5671 5663 5655 5647 5638 5630 5621 5612 5603 5594 5585 5577 5568 5560 5551 5543 5535 5527 5520 5513 5505 5498 5490 5482 5475 5467 5459 5452 5444 5437 5429 5421 5414
5725 5723 5719 5715 5711 5705 5700 5693 5687 5680 5672 5664 5657 5649 5641 5633 5625 5617 5608 5599 5590 5582 5574 5565 5557 5549 5541 5533 5526 5518 5511 5504 5497 5489 5482 5474 5467 5459 5452 5444 5437 5430 5422 5415
5714 5711 5709 5705 5701 5696 5691 5685 5679 5672 5665 5657 5650 5643 5635 5628 5620 5611 5603 5595 5587 5578 5570 5562 5554 5546 5538 5531 5523 5516 5509 5502 5495 5488 5481 5474 5466 5459 5452 5444 5437 5430 5423 5416
5701 5699 5697 5694 5691 5686 5682 5676 5670 5664 5657 5650 5643 5636 5629 5622 5614 5606 5598 5590 5582 5574 5567 5559 5551 5543 5536 5528 5521 5514 5507 5500 5494 5487 5480 5473 5466 5459 5451 5444 5437 5430 5424 5416